Theta_e
346 344 343 343 342 342 342 343 345 344 344 346 348 348 347 348 349 350 349 348 346 346
346 344 343 344 345 344 344 344 342 342 344 347 348 348 349 346 346 350 349 347 348 346
345 345 345 343 343 344 344 343 344 344 345 347 348 349 348 345 346 348 346 346 347 345
345 345 344 344 344 344 346 345 346 346 346 347 348 350 349 344 345 346 344 343 344 346
346 345 344 343 344 347 345 346 345 347 347 349 349 350 349 347 349 346 345 341 341 343
347 346 343 343 343 346 347 345 345 346 346 347 349 349 349 350 349 349 349 347 343 344
342 347 346 343 342 343 345 346 346 346 346 348 349 349 350 350 351 350 350 350 348 348
342 348 346 343 342 343 343 344 346 345 347 345 347 347 349 350 350 348 348 349 350 349
348 347 347 346 344 343 342 342 343 344 345 343 343 338 339 347 349 350 348 348 350 352
349 347 346 347 346 344 343 343 342 342 343 344 344 333 334 340 350 348 348 349 349 349
347 346 346 345 345 346 344 343 343 342 342 343 344 331 330 336 347 348 348 349 349 349
344 345 346 344 344 344 345 343 344 345 342 342 343 328 328 332 343 344 346 349 350 349
342 344 345 347 346 345 345 346 345 344 345 339 344 328 326 330 343 342 343 346 347 333
340 338 342 345 348 345 344 344 345 345 345 345 342 342 324 323 344 344 344 343 343 345
Wind_Speed
8 6 6 6 5 5 5 6 6 8 7 7 6 5 6 3 5 5 5 7 5 4
8 7 7 7 7 6 6 6 7 9 8 8 7 8 6 4 5 5 4 6 5 3
11 8 6 4 7 7 5 7 7 7 7 6 6 7 6 4 4 6 4 4 5 5
8 7 6 8 6 5 5 8 7 7 6 6 7 7 6 6 6 6 5 4 5 6
7 5 8 8 5 7 8 6 7 7 6 6 7 7 6 6 6 7 6 6 4 5
5 8 9 9 9 8 8 7 6 7 7 7 7 6 7 7 6 6 7 6 6 6
9 10 8 7 8 9 8 7 7 8 7 7 7 7 6 7 7 7 7 6 6 6
11 8 8 9 10 10 10 9 9 8 8 7 6 6 7 8 8 8 7 6 7 7
7 8 11 8 9 9 10 10 9 9 10 9 7 9 12 10 7 8 8 8 7 6
7 9 11 10 9 9 11 9 11 10 9 10 9 13 14 13 6 7 8 8 7 6
5 7 8 8 10 10 10 12 10 11 12 11 10 14 15 15 9 7 8 9 9 7
4 5 6 8 11 11 8 11 12 9 12 13 11 13 14 10 8 9 10 8 7 8
5 5 5 8 10 10 9 11 10 11 11 14 13 14 16 13 7 9 7 6 8 11
5 5 6 5 6 8 10 10 8 11 10 12 13 12 17 17 10 8 7 7 6 6
Wind_Direction
206 200 205 186 182 199 211 217 195 194 194 222 202 211 193 201 212 200 214 212 200 208
219 204 204 194 193 189 202 213 198 195 195 209 196 210 180 199 222 209 204 222 210 209
196 207 210 201 200 204 202 206 186 194 203 201 203 202 184 189 201 205 202 207 193 208
203 192 195 224 195 197 199 189 189 190 197 191 206 208 195 193 182 198 199 208 205 219
197 200 205 203 195 186 210 196 185 175 189 194 215 204 198 204 194 192 203 213 201 231
222 197 198 203 195 183 200 193 182 188 191 193 212 212 210 213 197 198 207 202 203 218
276 250 211 185 200 193 194 191 191 194 198 207 208 212 216 212 204 208 213 199 209 215
283 242 227 184 194 203 189 196 196 197 200 201 209 219 209 215 209 211 215 209 215 211
239 220 230 210 199 198 197 195 195 205 204 199 207 206 204 213 206 212 208 220 220 227
249 226 220 218 200 200 203 192 200 206 209 212 209 199 204 208 210 212 213 213 222 223
259 241 235 220 228 203 199 201 198 195 201 211 216 199 206 205 204 218 227 216 216 215
322 269 241 231 234 235 204 204 205 192 192 203 217 202 208 193 214 219 230 220 210 211
297 290 270 253 244 236 223 225 206 211 204 199 210 195 203 191 205 220 224 221 223 211
271 279 279 281 256 241 237 232 215 210 211 207 202 204 198 191 201 215 219 221 222 221